Weather in Santa Clara

United States     37°21′09″N   121°58′05″W
temp.,
°C
wind,
m/s
gust,
m/s
humid.,
%
clouds,
%
prec.,
mm/h
press.,
hPa
HPBL,
m
28 may, sat
sat2823:00+12nw2287100 0.0 1017195
02:00+11wnw119185 0.0 1016164
05:00+11wnw0191100 0.0 101681
08:00+14sw017243 0.0 1015414
11:00+21nw3441100 0.0 10151321
14:00+23nw453885 0.0 10141817
17:00+21w45435 0.0 10131239
20:00+15w246921 0.0 1014403
29 may, sun
sun2923:00+14nw3580100 0.0 1014716
02:00+10w23889 0.0 1014172
05:00+8wnw23896 0.0 1014181
08:00+12nnw35685 0.0 1015527
11:00+18nnw35435 0.0 1014982
14:00+22nnw56280 0.0 10131255
17:00+20nw57330 0.0 10121056
20:00+13wnw35620 0.0 1013290
30 may, mon
mon3023:00+8sw11831 0.0 101498
02:00+7sw11830 0.0 101463
05:00+7w11825 0.0 101442
08:00+13nnw23550 0.0 1014250
11:00+20n34270 0.0 1013932
14:00+24nnw44210 0.0 10111401
17:00+23nw44240 0.0 10101160
20:00+14wnw34550 0.0 1012204
31 may, tue
tue3123:00+9wsw12792 0.0 101385
02:00+8ssw11800 0.0 101249
05:00+8nw11770 0.0 101219
08:00+16n11470 0.0 1012168
11:00+23nnw33263 0.0 1012701
14:00+27nnw44170 0.0 10111523
17:00+27nnw54185 0.0 10091329
20:00+18nw34425 0.0 1011158
1 june, wed
wed123:00+14wnw12500 0.0 101163
02:00+13wsw11495 0.0 101019
05:00+13sw11510 0.0 101011
08:00+19n11390 0.0 1011157
11:00+28n22200 0.0 1010770
14:00+32nnw32160 0.0 10081665
17:00+30nw44170 0.0 10071172
20:00+19wnw23445 0.0 1009149